This demonstration page uses our WeatherBlox Daily Observations layout. Learn more.

Hourly Observations for May 31, 2018

Temp ( °F °C ) Dew Point ( °F °C ) Humidity (%) Winds ( mph kmh ) Pressure ( in mb ) Visibility ( mi km ) Precip ( " mm )
12:15 am 00:15 Clear 67 19.5 59 15 75 75 Calm 29.71 1006 10 16.0934 0 0
12:35 am 00:35 Partly Cloudy 67 19.6 59 15.2 76 76 WSW 8 13 29.71 1006 10 16.0934 0 0
12:55 am 00:55 Partly Cloudy 69 20.8 58 14.7 68 68 W 3 6 29.65 1004 10 16.0934 0 0
1:15 am 01:15 Clear 69 20.3 57 14.1 68 68 W 9 15 29.68 1005 10 16.0934 0 0
1:35 am 01:35 Clear 69 20.7 56 13.6 64 64 WNW 7 11 29.65 1004 10 16.0934 0 0
1:55 am 01:55 Clear 67 19.7 56 13.5 68 68 W 5 7 29.65 1004 10 16.0934 0 0
2:15 am 02:15 Clear 67 19.3 56 13.1 68 68 Calm 29.65 1004 10 16.0934 0 0
2:35 am 02:35 Clear 66 19 55 13 68 68 WNW 3 6 29.68 1005 10 16.0934 0 0
2:55 am 02:55 Clear 66 18.9 55 13 69 69 W 3 6 29.68 1005 10 16.0934 0 0
3:15 am 03:15 Clear 64 17.9 56 13.1 74 74 Calm 29.68 1005 10 16.0934 0 0
3:35 am 03:35 Clear 65 18.1 55 13 72 72 NW 3 6 29.68 1005 10 16.0934 0 0
3:55 am 03:55 Clear 66 19 55 12.7 67 67 WNW 5 7 29.68 1005 10 16.0934 0 0
4:15 am 04:15 Clear 65 18.5 56 13.2 71 71 Calm 29.68 1005 10 16.0934 0 0
4:35 am 04:35 Clear 63 17.3 56 13.6 79 79 SW 5 7 29.74 1007 10 16.0934 0 0
4:55 am 04:55 Clear 63 17.4 57 13.7 79 79 WSW 3 6 29.71 1006 10 16.0934 0 0
5:15 am 05:15 Clear 64 18 56 13.1 73 73 W 5 7 29.71 1006 10 16.0934 0 0
5:35 am 05:35 Clear 64 18 55 13 73 73 W 6 9 29.71 1006 10 16.0934 0 0
5:55 am 05:55 Clear 65 18.3 55 12.7 70 70 W 6 9 29.71 1006 10 16.0934 0 0
6:15 am 06:15 Mostly Cloudy 62 16.9 56 13.2 79 79 NW 5 7 29.74 1007 10 16.0934 0 0
6:35 am 06:35 Partly Cloudy 64 17.5 56 13.4 77 77 WNW 5 7 29.71 1006 10 16.0934 0 0
6:55 am 06:55 Mostly Cloudy 64 17.5 56 13.6 78 78 S 9 15 29.71 1006 10 16.0934 0 0
7:15 am 07:15 Partly Cloudy 64 17.7 57 13.7 78 78 SSW 7 11 29.74 1007 10 16.0934 0 0
7:35 am 07:35 Sunny 65 18.3 58 14.4 78 78 WSW 5 7 29.74 1007 10 16.0934 0 0
7:55 am 07:55 Sunny 67 19.5 57 14.1 71 71 WSW 7 11 29.74 1007 10 16.0934 0 0
8:15 am 08:15 Sunny 69 20.5 59 15.1 71 71 SW 9 15 29.74 1007 10 16.0934 0 0
8:35 am 08:35 Sunny 70 21.3 60 15.7 71 71 SW 9 15 29.71 1006 10 16.0934 0 0
8:55 am 08:55 Sunny 72 22.2 60 15.5 66 66 SW 9 15 29.71 1006 10 16.0934 0 0
9:15 am 09:15 Sunny 73 23 60 15.5 63 63 SW 10 17 29.71 1006 10 16.0934 0 0
9:35 am 09:35 Sunny 74 23.6 60 15.6 61 61 SSW 12 19 29.71 1006 10 16.0934 0 0
9:55 am 09:55 Sunny 75 24 60 15.5 59 59 SSW 12 19 29.74 1007 10 16.0934 0 0
10:15 am 10:15 Sunny 76 24.5 60 15.6 58 58 SSW 14 22 29.71 1006 10 16.0934 0 0
10:35 am 10:35 Sunny 77 25 61 16.2 58 58 SW 10 17 29.68 1005 10 16.0934 0 0
10:55 am 10:55 Sunny 77 25.1 62 16.6 59 59 SW 12 19 29.68 1005 10 16.0934 0 0
11:15 am 11:15 Sunny 79 26 62 16.5 56 56 SSW 14 22 29.68 1005 10 16.0934 0 0
11:35 am 11:35 Sunny 79 26.2 62 16.4 55 55 SW 15 24 29.68 1005 10 16.0934 0 0
11:55 am 11:55 Sunny 80 26.5 61 16.2 53 53 SSW 12 19 29.68 1005 10 16.0934 0 0
12:15 pm 12:15 Sunny 80 26.6 62 16.5 54 54 SSW 13 20 29.68 1005 10 16.0934 0 0
12:35 pm 12:35 Sunny 81 27 61 16.1 51 51 SSW 12 19 29.71 1006 10 16.0934 0 0
12:55 pm 12:55 Sunny 82 27.5 59 15.2 47 47 SW 13 20 29.68 1005 10 16.0934 0 0
1:15 pm 13:15 Sunny 82 28 60 15.8 47 47 SSW 12 19 29.68 1005 10 16.0934 0 0
1:35 pm 13:35 Sunny 83 28.2 60 15.8 47 47 SSW 15 24 29.68 1005 10 16.0934 0 0
1:55 pm 13:55 Sunny 84 28.7 60 15.8 46 46 SSW 15 24 29.65 1004 10 16.0934 0 0
2:15 pm 14:15 Sunny 84 28.9 60 15.5 44 44 SSW 12 19 29.65 1004 10 16.0934 0 0
2:35 pm 14:35 Sunny 84 29 60 15.8 45 45 SW 10 17 29.65 1004 10 16.0934 0 0
2:55 pm 14:55 Sunny 85 29.3 61 16 45 45 SW 12 19 29.65 1004 10 16.0934 0 0
3:15 pm 15:15 Sunny 85 29.3 60 15.5 43 43 SW 9 15 29.65 1004 10 16.0934 0 0
3:35 pm 15:35 Sunny 85 29.5 61 16.3 45 45 SSW 8 13 29.65 1004 10 16.0934 0 0
3:55 pm 15:55 Sunny 85 29.7 61 15.9 43 43 SW 7 11 29.65 1004 10 16.0934 0 0
4:15 pm 16:15 Sunny 86 30.1 60 15.5 41 41 WSW 9 15 29.65 1004 10 16.0934 0 0
4:35 pm 16:35 Sunny 87 30.4 60 15.3 40 40 WSW 8 13 29.62 1003 10 16.0934 0 0
4:55 pm 16:55 Sunny 86 30.2 58 14.5 38 38 SSW 5 7 29.62 1003 10 16.0934 0 0
5:15 pm 17:15 Sunny 87 30.4 59 15 39 39 SSW 12 19 29.62 1003 10 16.0934 0 0
5:35 pm 17:35 Sunny 87 30.4 56 13.5 36 36 WSW 5 7 29.62 1003 10 16.0934 0 0
5:55 pm 17:55 Sunny 87 30.6 56 13.1 34 34 Calm 29.62 1003 10 16.0934 0 0
6:15 pm 18:15 Sunny 87 30.5 57 13.7 36 36 SSW 6 9 29.62 1003 10 16.0934 0 0
6:35 pm 18:35 Sunny 87 30.3 57 13.7 36 36 WSW 6 9 29.62 1003 10 16.0934 0 0
7:15 pm 19:15 Sunny 87 30.3 56 13.5 36 36 S 7 11 29.62 1003 10 16.0934 0 0
7:35 pm 19:35 Sunny 85 29.5 62 16.9 47 47 SSE 8 13 29.62 1003 10 16.0934 0 0
7:55 pm 19:55 Sunny 84 28.7 63 17.4 50 50 SSE 13 20 29.62 1003 10 16.0934 0 0
8:15 pm 20:15 Sunny 83 28.1 63 17 51 51 S 13 20 29.68 1005 10 16.0934 0 0
8:35 pm 20:35 Sunny 81 27.4 63 17 53 53 S 10 17 29.68 1005 10 16.0934 0 0
8:55 pm 20:55 Sunny 80 26.5 64 17.5 58 58 SSE 10 17 29.68 1005 10 16.0934 0 0
9:15 pm 21:15 Clear 78 25.5 64 17.6 62 62 SSE 8 13 29.68 1005 10 16.0934 0 0
9:35 pm 21:35 Clear 75 24 64 17.7 68 68 SSE 8 13 29.71 1006 10 16.0934 0 0
9:55 pm 21:55 Clear 74 23.5 63 17.4 69 69 SSE 8 13 29.71 1006 10 16.0934 0 0
10:15 pm 22:15 Clear 74 23.1 63 17 69 69 SSE 7 11 29.71 1006 10 16.0934 0 0
10:35 pm 22:35 Clear 73 22.5 63 17 71 71 SSE 7 11 29.71 1006 10 16.0934 0 0
10:55 pm 22:55 Clear 72 22 63 17.1 74 74 SSE 8 13 29.71 1006 10 16.0934 0 0
11:15 pm 23:15 Clear 72 22 63 17 73 73 SSE 8 13 29.71 1006 10 16.0934 0 0
11:35 pm 23:35 Clear 73 22.9 62 16.7 68 68 SSE 9 15 29.71 1006 10 16.0934 0 0
11:55 pm 23:55 Clear 72 22 62 16.7 72 72 SSE 9 15 29.71 1006 10 16.0934 0 0

Powered by AerisWeather